EW1275 Weather Reports


Display with metric or nautical units.
time (UTC)temp
F
wind
direction
speed
MPH
gust
MPH
rain 1hr
in
rain 24hr
in
rain mn
in
humidity
%
barometer
mb
20190224031320 49 130 3.0 6.0 0.00 0.00 0.00 74 1023.6
20190224030833 50 136 5.0 6.0 0.00 0.00 0.00 73 1023.7
20190224030327 51 130 2.0 4.0 0.00 0.00 0.00 73 1023.6
20190224025835 51 130 2.0 4.0 0.00 0.00 0.00 72 1023.7
20190224025326 52 140 2.0 4.0 0.00 0.00 0.00 69 1023.8
20190224024834 54 142 2.0 6.0 0.00 0.00 0.00 66 1023.8
20190224024321 56 142 3.0 6.0 0.00 0.00 0.00 61 1023.8
20190224023835 56 348 4.0 7.0 0.00 0.00 0.00 62 1023.8
20190224023330 56 338 5.0 7.0 0.00 0.00 0.00 62 1023.8
20190224022837 56 330 5.0 7.0 0.00 0.00 0.00 62 1023.8
20190224022328 56 19 5.0 7.0 0.00 0.00 0.00 64 1023.7
20190224021836 57 324 4.0 8.0 0.00 0.00 0.00 63 1023.7
20190224021323 56 355 6.0 8.0 0.00 0.00 0.00 62 1023.7
20190224020836 56 346 5.0 7.0 0.00 0.00 0.00 63 1023.7
20190224020330 56 330 5.0 8.0 0.00 0.00 0.00 63 1023.7
20190224015837 56 346 5.0 9.0 0.00 0.00 0.00 63 1023.7
20190224015325 56 301 6.0 10.0 0.00 0.00 0.00 62 1023.6
20190224014837 56 331 6.0 10.0 0.00 0.00 0.00 63 1023.7
20190224014328 57 320 7.0 9.0 0.00 0.00 0.00 64 1023.6
20190224013835 57 327 6.0 9.0 0.00 0.00 0.00 63 1023.6
20190224013326 57 328 6.0 8.0 0.00 0.00 0.00 64 1023.6
20190224012832 57 336 5.0 8.0 0.00 0.00 0.00 62 1023.6
20190224012343 57 339 5.0 7.0 0.00 0.00 0.00 61 1023.5
20190224011830 57 348 5.0 7.0 0.00 0.00 0.00 63 1023.5
20190224011340 57 347 5.0 7.0 0.00 0.00 0.00 63 1023.5
20190224010831 57 16 5.0 7.0 0.00 0.00 0.00 63 1023.5
20190224010343 57 325 4.0 6.0 0.00 0.00 0.00 64 1023.5
20190224005830 58 318 3.0 6.0 0.00 0.00 0.00 61 1023.5
20190224005338 58 322 4.0 6.0 0.00 0.00 0.00 62 1023.5
20190224004832 58 342 4.0 7.0 0.00 0.00 0.00 59 1023.5
20190224004340 58 337 5.0 7.0 0.00 0.00 0.00 60 1023.5
20190224003828 58 342 4.0 7.0 0.00 0.00 0.00 63 1023.4
20190224003336 58 325 5.0 7.0 0.00 0.00 0.00 61 1023.4
20190224002826 58 360 5.0 7.0 0.00 0.00 0.00 61 1023.5
20190224002334 59 327 5.0 7.0 0.00 0.00 0.00 62 1023.5
20190224001824 59 355 5.0 7.0 0.00 0.00 0.00 60 1023.5
20190224001338 59 299 5.0 7.0 0.00 0.00 0.00 60 1023.5
20190224000828 59 338 4.0 8.0 0.00 0.00 0.00 59 1023.4
20190224000336 59 355 4.0 8.0 0.00 0.00 0.00 60 1023.4
20190223235843 59 340 5.0 7.0 0.00 0.00 0.00 61 1023.3
20190223235330 59 5 4.0 7.0 0.00 0.00 0.00 61 1023.3
20190223234840 60 333 5.0 6.0 0.00 0.00 0.00 60 1023.3
20190223234328 60 340 4.0 6.0 0.00 0.00 0.00 60 1023.2
20190223233839 60 343 4.0 6.0 0.00 0.00 0.00 61 1023.1
20190223233330 60 348 3.0 6.0 0.00 0.00 0.00 60 1023.1
20190223232838 61 351 3.0 9.0 0.00 0.00 0.00 61 1023.1
20190223232329 61 360 4.0 9.0 0.00 0.00 0.00 55 1023.1
20190223231837 61 261 3.0 5.0 0.00 0.00 0.00 59 1023.0
20190223231327 61 335 2.0 6.0 0.00 0.00 0.00 57 1023.0
20190223230835 61 30 2.0 6.0 0.00 0.00 0.00 60 1023.0
20190223230323 61 331 3.0 6.0 0.00 0.00 0.00 60 1023.1
20190223225832 61 317 3.0 6.0 0.00 0.00 0.00 61 1023.2
20190223225325 61 355 3.0 5.0 0.00 0.00 0.00 61 1023.1
20190223224833 61 304 3.0 5.0 0.00 0.00 0.00 60 1023.2
20190223224327 61 346 3.0 4.0 0.00 0.00 0.00 57 1023.2
20190223223835 61 342 3.0 5.0 0.00 0.00 0.00 58 1023.2
20190223223323 61 272 3.0 5.0 0.00 0.00 0.00 57 1023.2
20190223222836 61 355 3.0 4.0 0.00 0.00 0.00 56 1023.2
20190223222330 61 355 2.0 5.0 0.00 0.00 0.00 58 1023.2
20190223221841 61 346 3.0 5.0 0.00 0.00 0.00 56 1023.2
20190223221328 61 350 3.0 5.0 0.00 0.00 0.00 55 1023.3
20190223220836 61 247 3.0 5.0 0.00 0.00 0.00 53 1023.3
20190223220344 61 326 3.0 5.0 0.00 0.00 0.00 53 1023.3
20190223215836 60 360 3.0 6.0 0.00 0.00 0.00 54 1023.3
20190223215344 60 355 4.0 6.0 0.00 0.00 0.00 56 1023.4
20190223214831 60 329 5.0 6.0 0.00 0.00 0.00 56 1023.4
20190223214342 60 333 5.0 6.0 0.00 0.00 0.00 57 1023.5
20190223213829 60 298 5.0 6.0 0.00 0.00 0.00 57 1023.5
20190223213338 61 355 4.0 7.0 0.00 0.00 0.00 57 1023.6
20190223212825 61 328 5.0 7.0 0.00 0.00 0.00 55 1023.6
20190223212333 60 324 5.0 6.0 0.00 0.00 0.00 55 1023.7
20190223211826 61 333 4.0 5.0 0.00 0.00 0.00 56 1023.8
20190223211344 61 355 4.0 5.0 0.00 0.00 0.00 56 1023.9
20190223210831 61 340 3.0 4.0 0.00 0.00 0.00 55 1024.0
20190223210342 61 22 2.0 3.0 0.00 0.00 0.00 57 1024.0
20190223205831 61 350 2.0 3.0 0.00 0.00 0.00 52 1024.1
20190223205341 61 329 2.0 4.0 0.00 0.00 0.00 53 1024.1
20190223204829 61 355 2.0 4.0 0.00 0.00 0.00 53 1024.3
20190223204337 61 344 2.0 4.0 0.00 0.00 0.00 56 1024.3
20190223203845 61 323 2.0 5.0 0.00 0.00 0.00 55 1024.4
20190223203333 61 348 3.0 4.0 0.00 0.00 0.00 55 1024.6
20190223202828 61 344 3.0 4.0 0.00 0.00 0.00 55 1024.7
20190223202335 61 346 3.0 4.0 0.00 0.00 0.00 56 1024.8
20190223201842 60 340 3.0 5.0 0.00 0.00 0.00 58 1024.9
20190223201330 60 342 3.0 5.0 0.00 0.00 0.00 57 1025.0
20190223200841 60 49 4.0 5.0 0.00 0.00 0.00 58 1025.0
20190223200329 60 319 4.0 5.0 0.00 0.00 0.00 59 1025.0
20190223195835 60 319 4.0 5.0 0.00 0.00 0.00 58 1025.2
20190223195341 60 319 4.0 5.0 0.00 0.00 0.00 59 1025.2
20190223194832 60 328 3.0 5.0 0.00 0.00 0.00 56 1025.3
20190223194325 60 332 3.0 5.0 0.00 0.00 0.00 55 1025.3
20190223193836 59 321 3.0 5.0 0.00 0.00 0.00 55 1025.4
20190223193344 59 350 3.0 5.0 0.00 0.00 0.00 56 1025.4
20190223192831 59 325 3.0 5.0 0.00 0.00 0.00 54 1025.6
20190223192340 59 337 3.0 4.0 0.00 0.00 0.00 55 1025.5
20190223191827 59 327 2.0 4.0 0.00 0.00 0.00 53 1025.6
20190223191336 59 323 2.0 4.0 0.00 0.00 0.00 53 1025.7
20190223190843 59 325 2.0 4.0 0.00 0.00 0.00 52 1025.7
20190223190331 58 325 2.0 4.0 0.00 0.00 0.00 52 1025.8
20190223185843 58 331 2.0 4.0 0.00 0.00 0.00 51 1025.8
20190223185329 58 313 2.0 4.0 0.00 0.00 0.00 50 1025.8
20190223184840 57 355 2.0 4.0 0.00 0.00 0.00 49 1025.8
20190223184328 57 349 2.0 4.0 0.00 0.00 0.00 50 1025.8
20190223183836 57 346 2.0 4.0 0.00 0.00 0.00 53 1025.8
20190223183327 57 345 2.0 3.0 0.00 0.00 0.00 54 1025.9
20190223182840 56 344 2.0 4.0 0.00 0.00 0.00 54 1025.8
20190223182331 56 346 3.0 4.0 0.00 0.00 0.00 52 1025.9
20190223181825 56 355 2.0 4.0 0.00 0.00 0.00 53 1025.9
20190223181337 55 345 2.0 4.0 0.00 0.00 0.00 54 1026.0
20190223180827 55 345 2.0 4.0 0.00 0.00 0.00 55 1025.9
20190223180336 55 344 2.0 4.0 0.00 0.00 0.00 54 1025.9
20190223175843 54 340 2.0 3.0 0.00 0.00 0.00 53 1026.0
20190223175330 55 344 2.0 3.0 0.00 0.00 0.00 55 1026.0
20190223174841 54 344 2.0 4.0 0.00 0.00 0.00 57 1026.0
20190223174328 54 344 2.0 4.0 0.00 0.00 0.00 57 1025.9
20190223173836 54 349 1.0 3.0 0.00 0.00 0.00 61 1026.0
20190223173328 53 349 2.0 4.0 0.00 0.00 0.00 61 1026.0
20190223172836 53 348 2.0 4.0 0.00 0.00 0.00 61 1026.0
20190223172326 52 355 2.0 4.0 0.00 0.00 0.00 64 1026.1
20190223171834 51 355 2.0 5.0 0.00 0.00 0.00 65 1026.1
20190223171342 52 13 3.0 5.0 0.00 0.00 0.00 65 1026.1
20190223170829 52 355 2.0 5.0 0.00 0.00 0.00 65 1026.1
20190223170338 52 5 2.0 3.0 0.00 0.00 0.00 61 1026.1
20190223165825 52 130 2.0 3.0 0.00 0.00 0.00 58 1026.0
20190223165333 51 85 1.0 3.0 0.00 0.00 0.00 58 1026.0
20190223164830 51 91 1.0 5.0 0.00 0.00 0.00 60 1026.0
20190223164341 51 87 2.0 5.0 0.00 0.00 0.00 59 1026.1
20190223163829 50 152 2.0 6.0 0.00 0.00 0.00 60 1026.0
20190223163336 50 142 3.0 6.0 0.00 0.00 0.00 62 1026.0
20190223162827 50 128 4.0 8.0 0.00 0.00 0.00 64 1025.9
20190223162334 49 121 5.0 8.0 0.00 0.00 0.00 65 1026.0
20190223161825 49 122 5.0 8.0 0.00 0.00 0.00 68 1025.9
20190223161336 48 120 6.0 8.0 0.00 0.00 0.00 69 1025.8
20190223160826 47 115 6.0 10.0 0.00 0.00 0.00 71 1025.8
20190223160338 47 126 7.0 10.0 0.00 0.00 0.00 72 1025.8
20190223155831 47 140 7.0 10.0 0.00 0.00 0.00 71 1025.7
20190223155344 46 150 7.0 11.0 0.00 0.00 0.00 72 1025.6
20190223154832 46 139 7.0 11.0 0.00 0.00 0.00 73 1025.6
20190223154340 45 132 8.0 11.0 0.00 0.00 0.00 74 1025.6
20190223153828 44 134 8.0 14.0 0.00 0.00 0.00 75 1025.5
20190223153336 44 140 9.0 14.0 0.00 0.00 0.00 76 1025.3
20190223152843 43 132 8.0 11.0 0.00 0.00 0.00 77 1025.3
20190223152332 43 111 7.0 10.0 0.00 0.00 0.00 76 1025.3
20190223151843 43 119 8.0 10.0 0.00 0.00 0.00 76 1025.3
20190223151330 42 130 7.0 9.0 0.00 0.00 0.00 78 1025.1
20190223150841 42 147 7.0 10.0 0.00 0.00 0.00 78 1025.2
20190223150329 42 146 7.0 10.0 0.00 0.00 0.00 79 1025.2
20190223145836 41 140 8.0 10.0 0.00 0.00 0.00 79 1025.2
20190223145324 41 137 8.0 10.0 0.00 0.00 0.00 80 1025.1
20190223144832 41 115 8.0 10.0 0.00 0.00 0.00 81 1025.1
20190223144340 40 137 7.0 11.0 0.00 0.00 0.00 82 1025.1
20190223143828 39 128 8.0 11.0 0.00 0.00 0.00 82 1025.1
20190223143340 39 146 7.0 11.0 0.00 0.00 0.00 82 1025.0
20190223142828 39 137 8.0 11.0 0.00 0.00 0.00 82 1025.0
20190223142336 39 119 7.0 10.0 0.00 0.00 0.00 82 1025.0
20190223141843 39 121 7.0 9.0 0.00 0.00 0.00 83 1025.0
20190223141331 39 112 6.0 9.0 0.00 0.00 0.00 83 1025.0
20190223140840 39 135 6.0 9.0 0.00 0.00 0.00 83 1024.9
20190223140330 39 132 6.0 8.0 0.00 0.00 0.00 83 1024.8
20190223135837 40 139 7.0 8.0 0.00 0.00 0.00 82 1024.8
20190223135328 40 140 6.0 9.0 0.00 0.00 0.00 82 1024.7
20190223134820 40 147 7.0 9.0 0.00 0.00 0.00 82 1024.7
20190223134332 40 141 7.0 9.0 0.00 0.00 0.00 82 1024.7
20190223133823 40 132 6.0 9.0 0.00 0.00 0.00 82 1024.6
20190223133334 40 148 7.0 9.0 0.00 0.00 0.00 82 1024.6
20190223132842 40 137 6.0 8.0 0.00 0.00 0.00 82 1024.6
20190223132329 40 130 6.0 8.0 0.00 0.00 0.00 82 1024.5
20190223131840 40 138 6.0 9.0 0.00 0.00 0.00 82 1024.4
20190223131328 40 138 7.0 9.0 0.00 0.00 0.00 82 1024.4
20190223130835 40 137 5.0 7.0 0.00 0.00 0.00 82 1024.3
20190223130326 40 141 5.0 8.0 0.00 0.00 0.00 82 1024.3
20190223125839 40 146 6.0 8.0 0.00 0.00 0.00 81 1024.2
20190223125330 40 154 5.0 7.0 0.00 0.00 0.00 81 1024.1
20190223124841 41 151 5.0 9.0 0.00 0.00 0.00 81 1024.1
20190223124328 41 140 6.0 9.0 0.00 0.00 0.00 81 1024.1
20190223123836 41 138 6.0 9.0 0.00 0.00 0.00 81 1024.0
20190223123322 41 126 7.0 11.0 0.00 0.00 0.00 82 1024.1
20190223122836 40 129 7.0 10.0 0.00 0.00 0.00 82 1024.0
20190223122330 41 144 6.0 8.0 0.00 0.00 0.00 82 1024.0
20190223121844 41 136 5.0 8.0 0.00 0.00 0.00 82 1024.0
20190223121331 40 144 5.0 7.0 0.00 0.00 0.00 82 1024.0
20190223120842 40 136 4.0 7.0 0.00 0.00 0.00 82 1024.0
20190223120329 40 134 6.0 7.0 0.00 0.00 0.00 82 1024.0
20190223115840 41 147 5.0 8.0 0.00 0.00 0.00 82 1023.9
20190223115328 41 134 5.0 8.0 0.00 0.00 0.00 82 1024.0
20190223114835 41 144 4.0 6.0 0.00 0.00 0.00 82 1024.1
20190223114326 41 126 3.0 6.0 0.00 0.00 0.00 82 1024.0
20190223113838 41 129 4.0 6.0 0.00 0.00 0.00 82 1024.0
20190223113324 41 136 3.0 7.0 0.00 0.00 0.00 82 1023.9
20190223112835 41 133 3.0 5.0 0.00 0.00 0.00 83 1023.9
20190223112342 41 169 3.0 5.0 0.00 0.00 0.00 83 1023.9
20190223111830 40 161 3.0 7.0 0.00 0.00 0.00 83 1023.8
20190223111340 40 154 5.0 7.0 0.00 0.00 0.00 82 1023.8
20190223110830 41 155 5.0 7.0 0.00 0.00 0.00 83 1023.7
20190223110341 41 142 5.0 8.0 0.00 0.00 0.00 83 1023.7
20190223105831 41 161 6.0 8.0 0.00 0.00 0.00 83 1023.8
20190223105344 41 140 6.0 8.0 0.00 0.00 0.00 83 1023.6
20190223104830 41 154 4.0 8.0 0.00 0.00 0.00 82 1023.6
20190223104341 41 151 6.0 8.0 0.00 0.00 0.00 83 1023.7
20190223103829 41 155 5.0 9.0 0.00 0.00 0.00 83 1023.7
20190223103337 41 153 7.0 9.0 0.00 0.00 0.00 83 1023.7
20190223102830 41 142 5.0 7.0 0.00 0.00 0.00 83 1023.6
20190223102343 41 121 4.0 6.0 0.00 0.00 0.00 82 1023.7
20190223101831 41 144 5.0 8.0 0.00 0.00 0.00 82 1023.8
20190223101322 42 123 5.0 8.0 0.00 0.00 0.00 83 1023.6
20190223100832 42 134 6.0 8.0 0.00 0.00 0.00 83 1023.7
20190223100325 41 125 4.0 7.0 0.00 0.00 0.00 83 1023.6
20190223095835 41 127 4.0 7.0 0.00 0.05 0.00 83 1023.6
20190223095343 41 150 5.0 7.0 0.00 0.05 0.00 83 1023.8
20190223094831 42 144 5.0 8.0 0.00 0.05 0.00 83 1023.6
20190223094318 41 123 5.0 8.0 0.00 0.05 0.00 83 1023.6
20190223093831 42 148 5.0 7.0 0.00 0.05 0.00 82 1023.7
20190223093342 42 133 4.0 8.0 0.00 0.05 0.00 82 1023.7
20190223092834 42 140 6.0 10.0 0.00 0.05 0.00 82 1023.7
20190223092327 42 138 7.0 10.0 0.00 0.05 0.00 82 1023.7
20190223091838 42 103 4.0 9.0 0.00 0.05 0.00 83 1023.7
20190223091328 42 109 5.0 8.0 0.00 0.05 0.00 83 1023.7
20190223090836 42 148 5.0 8.0 0.00 0.05 0.00 83 1023.6
20190223090344 42 115 3.0 6.0 0.00 0.05 0.00 83 1023.5
20190223085832 42 141 4.0 6.0 0.00 0.06 0.00 83 1023.5
20190223085340 42 157 4.0 6.0 0.00 0.06 0.00 83 1023.5
20190223084827 42 125 2.0 6.0 0.00 0.06 0.00 83 1023.3
20190223084339 42 167 3.0 8.0 0.00 0.06 0.00 83 1023.4
20190223083827 42 140 5.0 8.0 0.00 0.06 0.00 83 1023.3
20190223083335 42 145 5.0 8.0 0.00 0.06 0.00 83 1023.2
20190223082826 42 136 4.0 8.0 0.00 0.06 0.00 83 1023.3
20190223082337 43 157 5.0 7.0 0.00 0.06 0.00 83 1023.3
20190223081828 43 141 4.0 8.0 0.00 0.06 0.00 83 1023.1
20190223081336 43 142 5.0 9.0 0.00 0.06 0.00 83 1023.1
20190223080844 43 157 6.0 9.0 0.00 0.06 0.00 83 1023.1
20190223080332 43 139 8.0 10.0 0.00 0.06 0.00 84 1023.0
20190223075822 43 126 7.0 9.0 0.00 0.07 0.05 84 1023.0
20190223075332 43 111 6.0 9.0 0.00 0.07 0.05 85 1022.9
20190223074825 42 120 4.0 8.0 0.00 0.07 0.05 84 1022.8
20190223074335 43 119 5.0 8.0 0.00 0.07 0.05 85 1022.8
20190223073843 43 129 4.0 8.0 0.00 0.07 0.05 85 1022.7
20190223073330 43 85 5.0 8.0 0.00 0.07 0.05 85 1022.7
20190223072838 43 106 5.0 8.0 0.00 0.07 0.05 84 1022.7
20190223072442 43 125 5.0 8.0 0.00 0.07 0.05 84 1022.6
20190223071836 43 120 5.0 8.0 0.00 0.07 0.05 84 1022.6
20190223071330 44 148 5.0 10.0 0.00 0.07 0.05 84 1022.6
20190223070841 44 146 7.0 10.0 0.00 0.07 0.05 84 1022.6
20190223070328 44 117 5.0 9.0 0.00 0.07 0.05 85 1022.5
20190223065836 44 140 6.0 12.0 0.00 0.07 0.05 85 1022.5
20190223065324 44 141 7.0 9.0 0.00 0.07 0.05 85 1022.5
20190223064837 44 109 5.0 9.0 0.00 0.07 0.05 85 1022.4
20190223064328 44 140 7.0 9.0 0.00 0.07 0.05 85 1022.4
20190223063836 43 130 5.0 7.0 0.00 0.07 0.05 85 1022.4
20190223063330 43 130 4.0 7.0 0.00 0.07 0.05 85 1022.3
20190223062841 43 148 6.0 8.0 0.00 0.07 0.05 85 1022.3
20190223062331 43 123 5.0 8.0 0.00 0.07 0.05 85 1022.3
20190223061839 43 111 4.0 7.0 0.00 0.07 0.05 85 1022.2
20190223061329 43 70 3.0 7.0 0.00 0.07 0.05 85 1022.2
20190223060837 44 115 5.0 7.0 0.00 0.07 0.05 85 1022.2
20190223060328 44 99 4.0 6.0 0.00 0.07 0.05 85 1022.0
20190223055836 44 108 3.0 5.0 0.00 0.14 0.05 85 1022.0
20190223055344 44 145 4.0 6.0 0.00 0.14 0.05 85 1022.0
20190223054835 44 150 5.0 6.0 0.00 0.14 0.05 85 1022.0
20190223054325 44 156 3.0 7.0 0.00 0.14 0.05 84 1021.9
20190223053836 44 147 4.0 8.0 0.00 0.14 0.05 84 1021.9
20190223053344 44 146 6.0 7.0 0.00 0.14 0.05 84 1021.9
20190223052832 44 117 5.0 7.0 0.00 0.14 0.05 84 1021.7
20190223052340 44 132 4.0 7.0 0.00 0.14 0.05 83 1021.7
20190223051827 45 112 4.0 5.0 0.00 0.14 0.05 83 1021.7
20190223051335 45 111 2.0 6.0 0.00 0.14 0.05 83 1021.6
20190223050843 45 101 3.0 6.0 0.00 0.14 0.05 82 1021.5
20190223050335 45 94 2.0 3.0 0.00 0.14 0.05 82 1021.5
20190223045826 46 124 2.0 3.0 0.00 0.14 0.05 81 1021.5
20190223045334 46 122 1.0 9.0 0.00 0.14 0.05 81 1021.3
20190223044823 46 106 3.0 11.0 0.00 0.14 0.05 81 1021.3
20190223044334 46 140 6.0 11.0 0.00 0.14 0.05 82 1021.2
20190223043841 45 140 7.0 10.0 0.00 0.14 0.05 82 1021.1
20190223043329 45 117 4.0 8.0 0.00 0.14 0.05 82 1021.1
20190223042837 45 118 5.0 7.0 0.00 0.14 0.05 81 1021.1
20190223042325 45 145 5.0 6.0 0.00 0.14 0.05 81 1021.0
20190223041840 45 117 5.0 7.0 0.00 0.14 0.05 80 1021.0
20190223041328 45 136 5.0 7.0 0.00 0.14 0.05 80 1020.9
20190223040835 45 147 4.0 6.0 0.00 0.14 0.05 79 1020.9
20190223040342 46 138 4.0 6.0 0.00 0.14 0.05 79 1020.9
20190223035830 46 114 4.0 5.0 0.00 0.14 0.05 78 1020.9
20190223035337 46 69 3.0 7.0 0.00 0.14 0.05 78 1020.8
20190223034830 46 118 4.0 7.0 0.00 0.14 0.05 78 1020.8
20190223034340 46 128 3.0 5.0 0.00 0.14 0.05 77 1020.7
20190223033831 46 106 3.0 5.0 0.00 0.14 0.05 77 1020.6
20190223033321 47 105 3.0 4.0 0.00 0.14 0.05 77 1020.5
20190223032836 47 86 2.0 5.0 0.00 0.14 0.05 77 1020.5
20190223032326 48 118 3.0 5.0 0.00 0.14 0.05 76 1020.4
20190223031834 48 109 4.0 6.0 0.00 0.14 0.05 75 1020.4